Location: Arpaise
(41.0333°N, 14.7333°E)
Time: 16:33:01
(UTC+00:00)

EO 1 Delta rocket - Pass Details

Date: 05 July 2020
Orbit: 697 x 1792 km, 95.4° (Epoch: 11 August)

Event Time Altitude Azimuth Distance (km) Brightness Sun altitude
Rises 21:45:58 0° 11° (N) 3,235 8.2 -23.7°
Reaches altitude 10° 21:48:06 10° 13° (NNE) 2,383 7.3 -23.8°
Maximum altitude 21:53:20 76° 100° (E) 952 4.3 -24.1°
Enters shadow 21:54:42 54° 168° (SSE) 1,146 4.4 -24.2°
